STARLINK-11174, 60409

Orbit data source: Space-Track

STARLINK-11174, 60409 is a payload satellite owned by SpaceX/Seattle (US) in LEO that was launched on Sat, 10 Aug 2024 UTC via an FALCON 9 launch vehicle from the Air Force Eastern Test Range (AFETR). Payload-class satellites include a variety of spacecraft equipped with specific instruments for various scientific and technological missions. These include communications satellites like Starlink; space stations such as the ISS; scientific satellites like the Hubble; Earth observation satellites from companies like Planet Labs, Umbra, and HawkEye 360; GPS; miniature CubeSats for education and research; and military/defense satellites.

Loading next visibility...
Identifier
60409, 2024-141M
Orbit
LEO
Country
Flag of USUS
Related business
Manufacturer
SpaceX/Seattle
Mission
Operational Commercial Communications
Bus & Motor
STARLINK V2MD, Unknown motor
Mass
960 kg wet, ~910 kg dry
Launch date (UTC)
2024-08-10 (1 year ago)
Launch vehicle
FALCON 9
Launch site
Air Force Eastern Test Range (AFETR)
Object type
Payload
Rocket body
Debris
Shape & HBR
Box + 2 Pan, 14.5 m
Radar Cross Section
36.964 m², Large (>1 m²)

Expand to show TLE details & history
Last TLE update: 1 day ago

TLE from 1 day ago
0 STARLINK-11174
1 60409U 24141M   25260.00093149 -.00005696  00000-0 -42263-4 0  9991
2 60409  53.1561 222.4411 0000499  81.1744 278.9330 15.69675453 64413
Epoch: 2025-09-17T00:01Z
TLE epoch observation values (Epoch: 2025-09-17T00:01:20.48Z)
Latitude
-0.00006°
Longitude
-134.07744°
Altitude
360.688 km
Speed
7.694 km/s
True Right ascension
14h 49m 45s
True Declination
0° 00' 00"
Sunlit
Object was in daylight at epoch
Visualization orbit readout
Latitude
Unknown
Longitude
Unknown
Altitude
Unknown
Speed
Unknown
Apparent Right ascension
Unknown
Apparent Declination
Unknown
Sunlit
N/A
Visualization observer readout
Local Sidereal Time
22:02:45
Azimuth
Unknown
Elevation
Unknown
Doppler factor
Unknown
Orbital elements
Apogee altitude
360.423 km
Perigee altitude
359.751 km
Semi-major axis
6,738.224 km
Eccentricity
0.00005
Inclination
53.1561°
RAAN
222.4411°
Arg. of periapsis
81.1744°
True anomaly
278.92735°
Mean anomaly
278.933°
Eccentric anomaly
278.93018°
Mean motion
3.92396 °/min
Orbital period
91.74 mins
BSTAR
-0.000042263
Loading maneuver chart data...
Computing Atmospheric mass density...
Loading historical data...
Loading historical data...
Loading historical data...
Loading historical data...
Loading historical data...
Loading historical data...
Loading historical data...

Documentation

Showing up to 5 results
|